[[{"header":{"parameterUnit":"m.s-1","parameterCategory":1,"la1":30.2991,"la2":30.254,"lo1":-89.0895,"lo2":-89.0444,"dy":0.0017,"dx":0.0017,"nx":28,"ny":28,"refTime":"2024-07-29T21:00:00:Z","depth":0,"parameterNumber":2,"parameterNumberName":"U-component_of_WINDS"},"data":[0,0,0,0,0,0,0,0,0,0,0,0,0,0,0,0,0,0,0,0,0,0,0,0,0,0,0,0,0,0,0,0,0,0,0,0,0,0,0,0,0,0,0,0,0,0,0,0,0,0,0,0,0,0,0,0,0,0,4.1609,4.1611,0,4.1781,4.1783,4.1785,4.1729,4.1725,4.1721,4.1718,4.1898,4.1906,4.1914,0,0,0,0,0,0,0,0,0,0,0,0,0,4.1233,4.124,4.1609,4.1611,4.1613,4.1781,4.1783,4.1786,4.1729,4.1725,4.172,4.1716,4.1895,4.1905,4.1915,0,0,0,0,0,0,0,0,0,0,0,0,0,4.14,4.1242,4.1608,4.1605,4.1606,4.178,4.1783,4.1786,4.173,4.1725,4.1719,4.1714,4.1892,4.1904,4.1916,4.2105,0,0,4.1954,4.1959,0,0,0,0,0,0,0,0,4.139,4.1414,4.1603,4.1606,4.1607,4.1728,4.1717,4.1893,4.1732,4.1683,4.1717,4.1711,4.1846,4.1862,4.1906,4.2113,4.2121,4.1955,4.1963,4.1968,4.1972,0,0,0,0,0,0,0,4.1379,4.1406,4.1677,4.1606,4.1609,4.1596,4.1613,4.175,4.1794,4.1687,4.1683,4.1704,4.1846,4.1895,4.191,4.2124,4.1955,4.1966,4.1973,4.1978,4.2491,4.2497,0,0,0,0,0,0,4.1366,4.1397,4.1672,4.1682,4.1483,4.1607,4.1626,4.1695,4.1792,4.1802,4.1709,4.1701,4.1876,4.1896,4.1916,4.2141,4.1968,4.198,4.1987,4.2485,4.2492,4.2499,0,0,0,0,0,0,4.1358,4.1391,4.1665,4.1538,4.1572,4.1619,4.1696,4.1701,4.175,4.1809,4.1817,4.175,4.1873,4.1899,4.2057,4.2147,4.1985,4.1996,4.2477,4.2487,4.2495,4.2594,0,0,0,0,0,0,4.1347,4.1388,4.146,4.154,4.1579,4.1802,4.1702,4.1709,4.1771,4.1762,4.185,4.1859,4.187,4.2039,4.207,4.2161,4.2006,4.247,4.2482,4.2493,4.2582,4.2605,4.2624,0,0,0,0,0,4.1334,4.1482,4.1464,4.1497,4.167,4.1808,4.183,4.1839,4.1778,4.1851,4.1888,4.1856,4.2132,4.2056,4.209,4.2186,4.2464,4.2478,4.2492,4.2573,4.2601,4.2624,0,0,0,0,0,0,4.1413,4.1493,4.1473,4.1652,4.1723,4.1798,4.1889,4.1868,4.1959,4.1947,4.1955,4.1976,4.2138,4.2178,4.2092,4.2372,4.2289,4.2311,4.234,4.2366,4.2387,4.2372,4.2016,0,0,0,0,0,4.1451,4.1555,4.162,4.1771,4.1808,4.1843,4.1903,4.1903,4.1978,4.2008,4.2058,4.2132,4.2235,4.2303,4.2402,4.2589,4.2606,4.2672,4.2692,4.2709,4.2727,4.2826,4.2855,4.2544,4.2544,4.2544,0,0,4.1531,4.1587,4.1653,4.1788,4.1843,4.1951,4.1869,4.1987,4.2067,4.2027,4.2178,4.2217,4.2301,4.2473,4.2552,4.2512,4.2817,4.2727,4.274,4.2749,4.2843,4.2873,4.2899,4.2554,4.2552,4.2551,0,0,4.173,4.1785,4.1915,4.1971,4.2055,4.2077,4.2109,4.2187,4.221,4.2362,4.2333,4.243,4.2608,4.2668,4.2722,4.2942,4.2915,4.2975,4.3083,4.3179,4.3204,4.3225,4.3302,4.3329,4.2993,4.2993,4.2993,0,4.1819,4.1979,4.1985,4.2105,4.2165,4.2132,4.2263,4.2319,4.2432,4.2474,4.2427,4.2648,4.2703,4.2887,4.2941,4.2987,4.3022,4.2964,4.32,4.3221,4.3242,4.3315,4.3344,4.2999,4.2999,4.2998,4.2997,0,4.2083,4.2195,4.229,4.2397,4.2468,4.2594,4.2618,4.269,4.2684,4.2711,4.2865,4.2929,4.3038,4.3083,4.308,4.3267,4.3239,4.3197,4.3113,4.3278,4.3346,4.3374,4.3008,4.3006,4.3004,4.3003,0,0,4.2337,4.2444,4.2479,4.2525,4.2615,4.2702,4.2826,4.2931,4.2991,4.307,4.3173,4.3324,4.3284,4.3345,4.3349,4.3434,4.3601,4.338,4.3382,4.3417,4.3808,4.3838,4.387,4.3584,4.359,4.3594,4.38,0,4.2542,4.2757,4.2765,4.2962,4.3064,4.3034,4.3141,4.3208,4.3237,4.3328,4.336,4.3465,4.3407,4.3443,4.3526,4.3563,4.3679,4.3549,4.3679,4.3684,4.3656,4.3906,4.3938,4.413,4.3828,4.3832,4.3835,0,4.2809,4.2893,4.31,4.3172,4.3216,4.3312,4.3408,4.3496,4.3571,4.3586,4.3653,4.3643,4.3769,4.3683,4.3856,4.3767,4.3821,4.3848,4.3855,4.3866,4.3768,4.3921,4.4192,4.4219,4.3878,4.3875,4.3872,0,4.297,4.3136,4.3279,4.3321,4.3411,4.3478,4.3519,4.3588,4.365,4.3735,4.3775,4.3874,4.3928,4.4005,4.4022,4.3958,4.4195,4.4111,4.421,4.4209,4.4259,4.4256,4.454,4.4299,4.4299,4.4298,4.4297,0,4.3196,4.3322,4.3352,4.3441,4.3581,4.359,4.3729,4.3765,4.3827,4.3921,4.3903,4.3993,4.4011,4.4105,4.4119,4.4259,4.4285,4.4299,4.4301,4.4299,4.4297,4.4333,4.4319,4.4306,4.4304,4.4303,4.4301,0,4.3398,4.3423,4.3578,4.3649,4.367,4.377,4.3831,4.3916,4.3942,4.4062,4.409,4.4132,4.424,4.4266,4.4396,4.4406,4.457,4.4561,4.4544,4.4543,4.4639,4.4629,4.4955,4.4997,4.4731,4.4734,4.4736,0,4.3539,4.3635,4.3716,4.3777,4.382,4.392,4.3982,4.3995,4.4061,4.4152,4.4226,4.4332,4.4418,4.4593,4.4635,4.4734,4.4725,4.4832,4.474,4.4734,4.4723,4.4716,4.4725,4.4849,4.4852,4.4854,4.4856,0,4.3786,4.3793,4.3883,4.3978,4.4053,4.4128,4.42,4.4252,4.4274,4.4349,4.4459,4.4525,4.4657,4.4762,4.4861,4.4904,4.4884,4.4885,4.4913,4.4911,4.4896,4.4902,4.4589,4.4877,4.4875,4.4874,4.4873,4.4872,4.396,4.4043,4.4112,4.4213,4.4268,4.4335,4.4417,4.4452,4.4544,4.465,4.4653,4.4772,4.4844,4.4974,4.5022,4.5116,4.5083,4.5124,4.5134,4.5143,4.515,4.4883,4.5135,4.5134,4.5134,4.5133,4.5133,0,4.4203,4.4246,4.4338,4.4438,4.4517,4.4491,4.4569,4.4637,4.4741,4.4809,4.4893,4.5018,4.512,4.517,4.527,4.5335,4.5329,4.5361,4.5355,4.5365,4.5175,4.514,4.5365,4.5365,4.5365,4.5365,4.5365,4.5365,4.4339,4.4477,4.4492,4.4657,4.4699,4.4814,4.4861,4.4922,4.4976,4.5116,4.52,4.5231,4.5292,4.5396,4.5488,4.55,4.5537,4.5573,4.5581,4.5402,4.5379,4.5356,4.5322,4.5582,4.5582,4.5762,4.5763,4.5765]},{"header":{"parameterUnit":"m.s-1","parameterCategory":1,"la1":30.2991,"la2":30.254,"lo1":-89.0895,"lo2":-89.0444,"dy":0.0017,"dx":0.0017,"nx":28,"ny":28,"refTime":"2024-07-29T21:00:00:Z","depth":0,"parameterNumber":3,"parameterNumberName":"V-component_of_WINDS"},"data":[0,0,0,0,0,0,0,0,0,0,0,0,0,0,0,0,0,0,0,0,0,0,0,0,0,0,0,0,0,0,0,0,0,0,0,0,0,0,0,0,0,0,0,0,0,0,0,0,0,0,0,0,0,0,0,0,0,0,2.9688,2.9688,0,2.9709,2.9709,2.971,2.9656,2.9654,2.9652,2.9651,2.9672,2.9674,2.9677,0,0,0,0,0,0,0,0,0,0,0,0,0,2.9601,2.9603,2.9688,2.9688,2.9689,2.9709,2.9709,2.971,2.9656,2.9654,2.9652,2.965,2.9672,2.9674,2.9677,0,0,0,0,0,0,0,0,0,0,0,0,0,2.9632,2.9603,2.9688,2.9664,2.9662,2.9709,2.9709,2.971,2.9656,2.9654,2.9651,2.9649,2.9671,2.9674,2.9677,2.9748,0,0,2.9687,2.9688,0,0,0,0,0,0,0,0,2.963,2.9635,2.9668,2.9666,2.9664,2.9677,2.9686,2.9723,2.9657,2.9659,2.965,2.9648,2.9676,2.9679,2.9688,2.9749,2.975,2.9687,2.9689,2.9691,2.9692,0,0,0,0,0,0,0,2.9628,2.9634,2.9696,2.9668,2.9666,2.9652,2.9654,2.9693,2.9681,2.9658,2.9654,2.9658,2.9675,2.9685,2.9688,2.975,2.9687,2.969,2.9692,2.9693,2.9868,2.987,0,0,0,0,0,0,2.9629,2.9633,2.9696,2.9697,2.964,2.9656,2.9658,2.9675,2.9681,2.9679,2.966,2.9655,2.9681,2.9685,2.9689,2.977,2.9691,2.9694,2.9696,2.9865,2.9868,2.9871,0,0,0,0,0,0,2.9627,2.9635,2.9695,2.9664,2.967,2.966,2.968,2.9677,2.9688,2.9682,2.9679,2.9673,2.9679,2.9684,2.9733,2.9771,2.9695,2.9698,2.9862,2.9866,2.987,2.9935,0,0,0,0,0,0,2.9625,2.9635,2.9662,2.9665,2.9672,2.9739,2.9683,2.9679,2.9693,2.9687,2.9693,2.9692,2.9677,2.9729,2.9736,2.9774,2.9701,2.9858,2.9864,2.9868,2.993,2.9941,2.9951,0,0,0,0,0,2.9622,2.9681,2.9664,2.9672,2.9706,2.9742,2.9746,2.9728,2.9697,2.9724,2.9719,2.9692,2.9765,2.9734,2.9742,2.9781,2.9856,2.9862,2.9868,2.9925,2.9939,2.9951,0,0,0,0,0,0,2.9683,2.9681,2.9662,2.9723,2.9733,2.9733,2.9766,2.9743,2.9763,2.9756,2.9733,2.9735,2.9788,2.9789,2.9755,2.9849,2.9805,2.9813,2.9846,2.9859,2.9869,2.9868,2.9703,0,0,0,0,0,2.9704,2.9733,2.9729,2.9783,2.9789,2.9777,2.9792,2.9777,2.9786,2.979,2.979,2.98,2.9825,2.9842,2.9865,2.993,2.993,2.996,2.9971,2.998,2.9987,3.0019,3.0033,2.9891,2.9891,2.9891,0,0,2.9747,2.9749,2.9769,2.9795,2.9801,2.9832,2.9781,2.9816,2.9837,2.9796,2.9841,2.9841,2.9851,2.9907,2.9932,2.991,3.0026,2.9987,2.9994,2.9997,3.0027,3.004,3.0052,2.9895,2.9894,2.9894,0,0,2.984,2.9845,2.989,2.9896,2.9905,2.9897,2.9907,2.991,2.9908,2.9953,2.9922,2.9948,2.9992,2.9999,3.0009,3.0103,3.0078,3.0111,3.0166,3.0198,3.0209,3.0219,3.0251,3.0263,3.0118,3.0118,3.0119,0,2.9892,2.9937,2.9916,2.9952,2.9964,2.9926,2.9971,2.9978,2.9995,3.0004,2.9979,3.0032,3.0036,3.0093,3.0116,3.0125,3.0136,3.011,3.0209,3.0219,3.0228,3.0258,3.027,3.0122,3.0122,3.0121,3.0121,0,3.0,3.0031,3.0066,3.0081,3.0097,3.0138,3.0122,3.0141,3.0124,3.0117,3.0163,3.0166,3.0188,3.0201,3.0185,3.0255,3.0241,3.0213,3.0169,3.0245,3.0273,3.0285,3.0128,3.0127,3.0125,3.0124,0,0,3.0133,3.0135,3.0148,3.0154,3.0161,3.0184,3.0222,3.0243,3.0259,3.0271,3.0301,3.0339,3.0312,3.0323,3.0308,3.0336,3.0409,3.0305,3.0305,3.0323,3.0484,3.0504,3.0518,3.0392,3.0394,3.0396,3.0483,0,3.0224,3.0289,3.027,3.0335,3.0362,3.0326,3.0359,3.0366,3.0361,3.0383,3.0377,3.0403,3.0367,3.0373,3.04,3.0394,3.0441,3.0388,3.0419,3.0421,3.0417,3.0533,3.0555,3.0637,3.0494,3.0496,3.0497,0,3.0339,3.0355,3.0422,3.0422,3.0433,3.0463,3.0479,3.0501,3.0508,3.0502,3.0513,3.0492,3.0528,3.0484,3.0533,3.0497,3.0509,3.0508,3.0511,3.0513,3.0463,3.0537,3.0663,3.0675,3.0514,3.0513,3.0512,0,3.0428,3.0466,3.051,3.0517,3.0518,3.054,3.0541,3.0545,3.0559,3.0573,3.0581,3.06,3.061,3.0625,3.0609,3.0578,3.066,3.0614,3.0655,3.0655,3.0674,3.0673,3.0802,3.0683,3.0682,3.0682,3.0682,0,3.0531,3.0574,3.055,3.0578,3.0623,3.0601,3.0647,3.0644,3.0648,3.0674,3.0644,3.0669,3.0646,3.0668,3.0656,3.0697,3.0703,3.0698,3.0694,3.07,3.0701,3.0707,3.0701,3.0685,3.0685,3.0684,3.0684,0,3.0639,3.0625,3.0671,3.0667,3.0668,3.0701,3.0698,3.0723,3.0715,3.0748,3.0754,3.0741,3.0766,3.0751,3.0777,3.0768,3.0822,3.0811,3.082,3.0816,3.0857,3.0853,3.0995,3.1012,3.0883,3.0884,3.0885,0,3.0705,3.0736,3.0736,3.0751,3.0754,3.0779,3.0791,3.077,3.0784,3.0793,3.0817,3.0839,3.0855,3.0896,3.0889,3.0908,3.0896,3.0945,3.0899,3.0904,3.0896,3.0894,3.0896,3.0954,3.0955,3.0957,3.0958,0,3.0824,3.0815,3.0834,3.0851,3.0866,3.0879,3.0889,3.0902,3.0881,3.0898,3.0923,3.0935,3.0961,3.0982,3.0998,3.0999,3.0975,3.0972,3.0982,3.0989,3.0992,3.0989,3.0844,3.0969,3.0968,3.0967,3.0966,3.0966,3.0912,3.0937,3.094,3.0962,3.0967,3.0976,3.0999,3.0993,3.1013,3.1031,3.1017,3.1046,3.105,3.1069,3.1073,3.1095,3.1075,3.109,3.1094,3.1098,3.1103,3.0989,3.1098,3.1097,3.1097,3.1097,3.1096,0,3.1028,3.1028,3.1048,3.1062,3.1079,3.1054,3.1063,3.1079,3.1104,3.111,3.1126,3.1154,3.1174,3.1168,3.1186,3.1205,3.1194,3.121,3.1208,3.1209,3.112,3.1109,3.1219,3.1219,3.1219,3.1219,3.1219,3.1218,3.109,3.1131,3.1122,3.1165,3.1164,3.1192,3.1199,3.1207,3.1211,3.1243,3.126,3.1255,3.1256,3.1274,3.1291,3.1289,3.1296,3.1317,3.131,3.1227,3.1215,3.1204,3.1193,3.1319,3.1319,3.1397,3.1398,3.1398]}]]